User: anonymous   Login
Location: Albany
(35.0000°S, 118.0000°E)
Time: 11:21:20
(UTC-04:00)
Language:

CZ-4B R/B - Orbit

View from above orbital plane
View from above orbital plane
View from above satellite
View from above satellite

Ground track
Ground track

The orbit data is extracted from the following two-line orbital elements,

1 33410U 08053C   14296.68962165  .00003886  00000-0  31058-3 0  9650
2 33410 097.6018 269.8621 0128524 195.2526 164.4805 14.94497302326035
Epoch (UTC): 23 October 2014 16:33:03
Eccentricity: 0.0128524
inclination: 97.6018°
perigee height: 494 km
apogee height: 673 km
right ascension of ascending node: 269.8621°
argument of perigee: 195.2526°
revolutions per day: 14.94497302
mean anomaly at epoch: 164.4805°
orbit number at epoch: 32603

The dashed part of the orbit path shows where the satellite is in the earth's shadow,  

DLR